Flag for Netherlands Weather past 2 weeks in 's-Hertogenbosch, Netherlands

Now
81 °F

Thunderstorms. Mostly cloudy.


Feels Like: 83 °F
Forecast: 55 / 65 °F
Wind: 8 mph from West

Location: Volkel

Current Time: Aug 31, 2015 at 5:55:49 PM

Latest Report: Aug 31, 2015 at 5:25 PM


Visibility: N/A

Pressure: 29.77 "Hg

Humidity: 62%

Dew point: 66 °F

Location of 's-HertogenboschLocation

Historic Weather in 's-Hertogenbosch — Graph

°F

's-Hertogenbosch temperature yesterday

Maximum temperature yesterday: 84 °F (at 4:25 PM)
Minimum temperature yesterday: 59 °F (at 6:55 AM)
Average temperature yesterday: 71 °F

Past Weeks' High & Low Weather Summary

 TemperatureHumidityPressure
High86 °F (Aug 31, 3:25 PM)100% (Aug 16, 8:55 PM)30.24 "Hg (Aug 16, 8:55 PM)
Low48 °F (Aug 29, 3:55 AM)32% (Aug 23, 1:55 PM)29.47 "Hg (Aug 24, 3:55 PM)
Average64 °F78%29.95 "Hg
* Reported Aug 16 4:02 PM — Aug 31 4:55 PM, 's-Hertogenbosch, Weather by CustomWeather, © 2015

Note: Actual official high and low records may vary slightly from our data, if they occured in-between our weather recording intervals... More about our weather records

Advertising

's-Hertogenbosch weather history for previous 24 hours

 ConditionsComfort  
Time TempWeatherWind HumidityBarometerVisibility
4:55 PM
Mon, Aug 31
81 °FOvercast.9 mph58%29.74 "HgN/A
4:25 PM82 °FPartly sunny.12 mph55%29.74 "HgN/A
3:55 PM84 °FOvercast.12 mph48%29.74 "HgN/A
3:25 PM86 °FScattered clouds.9 mph49%29.74 "HgN/A
2:55 PM84 °FWarm.9 mph51%29.77 "HgN/A
2:25 PM82 °FWarm.8 mph55%29.77 "HgN/A
1:55 PM82 °FPassing clouds.8 mph55%29.77 "HgN/A
1:25 PM81 °FWarm.7 mph62%29.77 "HgN/A
12:55 PM81 °FWarm.6 mph58%29.80 "HgN/A
12:25 PM79 °FWarm.7 mph65%29.80 "HgN/A
11:55 AM79 °FWarm.6 mph65%29.80 "HgN/A
11:25 AM77 °FWarm.5 mph69%29.83 "HgN/A
10:55 AM75 °FMild.10 mph74%29.80 "HgN/A
10:25 AM75 °FPassing clouds.9 mph78%29.83 "HgN/A
9:55 AM73 °FScattered clouds.10 mph78%29.83 "HgN/A
9:25 AM72 °FMild.7 mph78%29.86 "HgN/A
8:55 AM68 °FMild.6 mph88%29.86 "HgN/A
8:25 AM66 °FMild.5 mph88%29.86 "HgN/A
7:55 AM64 °FPartly sunny.5 mph94%29.86 "HgN/A
7:25 AM64 °FMild.5 mph94%29.89 "HgN/A
6:55 AM63 °FMild.3 mph100%29.89 "HgN/A
6:25 AM64 °FPassing clouds.7 mph94%29.89 "HgN/A
5:55 AM64 °FOvercast.5 mph94%29.89 "HgN/A
5:25 AM66 °FOvercast.6 mph88%29.89 "HgN/A
4:55 AM64 °FMostly cloudy.6 mph94%29.89 "HgN/A
4:25 AM66 °FMild.6 mph88%29.92 "HgN/A
3:55 AM66 °FOvercast.10 mph88%29.92 "HgN/A
3:25 AM66 °FPassing clouds.8 mph94%29.95 "HgN/A
2:59 AM68 °FPartly cloudy.10 mph88%30.01 "HgN/A
2:55 AM68 °FDrizzle. Mostly cloudy.13 mph88%30.01 "HgN/A
2:25 AM68 °FOvercast.3 mph83%29.92 "HgN/A
1:55 AM68 °FPassing clouds.5 mph83%29.92 "HgN/A
1:25 AM68 °FPassing clouds.3 mph83%29.95 "HgN/A
12:55 AM70 °FPartly cloudy.7 mph78%29.98 "HgN/A
11:25 PM
Sun, Aug 30
70 °FThunderstorms. Partly cloudy.15 mph78%29.98 "HgN/A
10:55 PM73 °FThunderstorms. Fog.7 mph89%29.95 "Hg4 mi
10:25 PM73 °FThunderstorms. Fog.6 mph89%29.95 "Hg4 mi
9:25 PM73 °FFog.6 mph89%29.95 "Hg4 mi
8:55 PM73 °FFog.5 mph89%29.98 "Hg4 mi
8:25 PM75 °FFog.5 mph89%29.98 "Hg5 mi
7:55 PM75 °FOvercast.3 mph89%29.98 "HgN/A
7:25 PM77 °FOvercast.3 mph83%29.98 "HgN/A
6:55 PM79 °FMostly cloudy.5 mph79%29.98 "HgN/A
6:25 PM79 °FPartly sunny.5 mph79%29.98 "HgN/A
5:55 PM79 °FPartly sunny.6 mph79%29.98 "HgN/A
5:25 PM82 °FPartly sunny.2 mph66%29.98 "HgN/A
Weather by CustomWeather, © 2015

See weather overviewHow to use our weather pages